Weather History for Mount Airy, NC

Change the Weather History Date:

Monday, February 4, 2013

  Actual Average (KINT) Record (KINT)
Temperature  
Mean Temperature 36 °F -  
Max Temperature 46 °F 48 °F 78 °F (1989)
Min Temperature 27 °F 31 °F 5 °F (1970)
Degree Days  
Heating Degree Days 28    
Moisture  
Dew Point 19 °F    
Average Humidity 50    
Maximum Humidity 63    
Minimum Humidity 35    
Precipitation  
Precipitation 0.00 in - - ()
Sea Level Pressure  
Sea Level Pressure 30.00 in    
Wind  
Wind Speed 4 mph (WSW)    
Max Wind Speed 14 mph    
Max Gust Speed 24 mph    
Visibility 10 miles    
Events      
Averages and records for this station are not official NWS values.
T = Trace of Precipitation, MM = Missing Value Source: NWS Daily Summary

Daily Weather History Graph

Daily Weather History Graph

Search for Another Location

Airport:

Trip Planner

Search our weather history database for the weather conditions in past years. The results will help you decide how hot, cold, wet, or windy it might be!

Date:

Astronomy

Feb. 04, 2013 Rise Set
Actual Time 7:20 AM EST 5:51 PM EST
Civil Twilight 6:54 AM EST 6:18 PM EST
Nautical Twilight 6:23 AM EST 6:49 PM EST
Astronomical Twilight 5:53 AM EST 7:19 PM EST
Moon 1:53 AM EST (2/4) 12:16 PM EST (2/4)
Length of Visible Light 11h 24m
Length of Day
10h 30m
Last Quarter, 37% of the Moon is Illuminated
Feb 4
Last Quarter
Feb 10
New
Feb 17
First Quarter
Feb 25
Full
Mar 4
Last Quarter

Hourly Weather History & Observations

Time (EST) Temp. Windchill Dew Point Humidity Pressure Visibility Wind Dir Wind Speed Gust Speed Precip Events Conditions
12:15 AM 34.9 °F 25.7 °F 19.2 °F 53% 29.96 in 10.0 mi WNW 13.8 mph 23.0 mph N/A   Clear
12:35 AM 34.5 °F 30.4 °F 18.9 °F 53% 29.96 in 10.0 mi NW 4.6 mph 24.2 mph N/A   Clear
12:55 AM 33.1 °F 30.0 °F 18.7 °F 56% 29.96 in 10.0 mi West 3.5 mph - N/A   Clear
1:15 AM 32.0 °F - 18.9 °F 58% 29.97 in 10.0 mi Calm Calm - N/A   Clear
1:35 AM 32.0 °F 27.5 °F 19.2 °F 59% 29.97 in 10.0 mi WNW 4.6 mph - N/A   Clear
1:55 AM 32.0 °F 25.6 °F 19.4 °F 60% 29.97 in 10.0 mi NW 6.9 mph - N/A   Clear
2:15 AM 32.0 °F 28.7 °F 19.4 °F 60% 29.98 in 10.0 mi West 3.5 mph - N/A   Clear
2:35 AM 31.5 °F 24.9 °F 18.7 °F 59% 29.99 in 10.0 mi West 6.9 mph - N/A   Clear
2:55 AM 31.1 °F 25.4 °F 17.6 °F 57% 29.97 in 10.0 mi WNW 5.8 mph - N/A   Clear
3:15 AM 30.7 °F 26.0 °F 16.7 °F 56% 29.97 in 10.0 mi West 4.6 mph - N/A   Clear
3:35 AM 30.2 °F 26.7 °F 16.7 °F 57% 30.00 in 10.0 mi West 3.5 mph - N/A   Clear
3:55 AM 30.0 °F - 16.5 °F 57% 29.99 in 10.0 mi Calm Calm - N/A   Clear
4:15 AM 30.0 °F 22.4 °F 16.3 °F 57% 30.00 in 10.0 mi WNW 8.1 mph - N/A   Clear
5:55 AM 29.3 °F - 15.6 °F 57% 30.02 in 10.0 mi Calm Calm - N/A   Clear
6:15 AM 29.1 °F - 15.4 °F 57% 30.04 in 10.0 mi Calm Calm - N/A   Clear
6:35 AM 28.0 °F - 14.0 °F 56% 30.03 in 10.0 mi Calm Calm - N/A   Clear
6:55 AM 27.5 °F - 14.4 °F 58% 30.04 in 10.0 mi Calm Calm - N/A   Clear
7:15 AM 28.4 °F 23.3 °F 15.8 °F 59% 30.05 in 10.0 mi NNW 4.6 mph - N/A   Clear
7:35 AM 29.7 °F 24.7 °F 16.7 °F 59% 30.05 in 10.0 mi NNW 4.6 mph - N/A   Clear
7:55 AM 30.2 °F - 16.9 °F 58% 30.06 in 10.0 mi Calm Calm - N/A   Clear
8:15 AM 30.6 °F - 17.1 °F 57% 30.07 in 10.0 mi Calm Calm - N/A   Clear
8:35 AM 30.9 °F 26.2 °F 17.2 °F 57% 30.07 in 10.0 mi NW 4.6 mph - N/A   Clear
8:55 AM 32.0 °F - 17.6 °F 55% 30.08 in 10.0 mi Calm Calm - N/A   Clear
9:15 AM 32.0 °F - 17.1 °F 54% 30.09 in 10.0 mi Calm Calm - N/A   Clear
9:35 AM 32.7 °F - 18.3 °F 55% 30.09 in 10.0 mi Calm Calm - N/A   Clear
10:15 AM 34.7 °F - 18.7 °F 52% 30.08 in 10.0 mi Calm Calm - N/A   Clear
10:55 AM 35.6 °F - 20.3 °F 54% 30.09 in 10.0 mi Calm Calm - N/A   Mostly Cloudy
11:15 AM 36.9 °F - 19.8 °F 50% 30.09 in 10.0 mi Calm Calm - N/A   Scattered Clouds
11:35 AM 38.5 °F - 21.9 °F 51% 30.08 in 10.0 mi Calm Calm - N/A   Clear
11:55 AM 39.6 °F 37.4 °F 21.0 °F 48% 30.07 in 10.0 mi SW 3.5 mph - N/A   Clear
12:15 PM 39.6 °F 37.4 °F 18.5 °F 43% 30.06 in 10.0 mi WSW 3.5 mph - N/A   Scattered Clouds
12:35 PM 39.7 °F - 19.6 °F 44% 30.04 in 10.0 mi Calm Calm - N/A   Overcast
12:55 PM 41.0 °F - 18.5 °F 40% 30.04 in 10.0 mi Calm Calm - N/A   Mostly Cloudy
1:15 PM 42.6 °F 40.9 °F 19.9 °F 40% 30.03 in 10.0 mi SSE 3.5 mph - N/A   Scattered Clouds
1:35 PM 43.5 °F 41.9 °F 18.9 °F 37% 30.02 in 10.0 mi SW 3.5 mph - N/A   Scattered Clouds
1:55 PM 43.7 °F 39.7 °F 18.9 °F 37% 30.02 in 10.0 mi SSW 6.9 mph - N/A   Clear
2:15 PM 45.1 °F - 19.9 °F 37% 30.01 in 10.0 mi Calm Calm - N/A   Clear
2:35 PM 46.4 °F 43.5 °F 20.5 °F 36% 30.00 in 10.0 mi South 5.8 mph - N/A   Scattered Clouds
2:55 PM 46.0 °F 43.9 °F 19.6 °F 35% 30.00 in 10.0 mi South 4.6 mph - N/A   Scattered Clouds
3:15 PM 45.7 °F 42.7 °F 20.3 °F 37% 29.99 in 10.0 mi South 5.8 mph - N/A   Scattered Clouds
3:55 PM 45.7 °F 44.4 °F 20.7 °F 37% 29.99 in 10.0 mi SSE 3.5 mph - N/A   Clear
4:15 PM 46.4 °F 42.9 °F 21.2 °F 37% 29.98 in 10.0 mi South 6.9 mph - N/A   Scattered Clouds
4:35 PM 45.1 °F 41.4 °F 20.8 °F 38% 29.97 in 10.0 mi SSW 6.9 mph - N/A   Scattered Clouds
4:55 PM 44.6 °F 43.1 °F 21.9 °F 41% 29.97 in 10.0 mi South 3.5 mph - N/A   Clear
5:15 PM 44.1 °F 42.5 °F 22.1 °F 42% 29.97 in 10.0 mi South 3.5 mph - N/A   Clear
5:35 PM 43.2 °F 41.5 °F 22.5 °F 44% 29.96 in 10.0 mi SSE 3.5 mph - N/A   Clear
5:55 PM 42.3 °F - 22.6 °F 46% 29.96 in 10.0 mi Calm Calm - N/A   Clear
6:15 PM 41.5 °F 39.6 °F 21.7 °F 45% 29.96 in 10.0 mi South 3.5 mph - N/A   Clear
6:35 PM 40.8 °F - 21.6 °F 46% 29.97 in 10.0 mi Calm Calm - N/A   Clear
6:55 PM 40.3 °F - 22.1 °F 48% 29.97 in 10.0 mi Calm Calm - N/A   Clear
7:15 PM 40.1 °F - 22.3 °F 49% 29.97 in 10.0 mi Calm Calm - N/A   Clear
7:35 PM 40.1 °F - 21.4 °F 47% 29.96 in 10.0 mi Calm Calm - N/A   Clear
8:15 PM 39.2 °F - 22.1 °F 50% 29.97 in 10.0 mi Calm Calm - N/A   Clear
8:35 PM 38.7 °F - 21.9 °F 51% 29.96 in 10.0 mi Calm Calm - N/A   Scattered Clouds
8:55 PM 36.0 °F - 16.0 °F 44% 29.96 in 10.0 mi Calm Calm - N/A   Scattered Clouds
9:15 PM 33.6 °F - 13.1 °F 43% 29.97 in 10.0 mi Calm Calm - N/A   Clear
9:35 PM 32.5 °F - 14.4 °F 47% 29.96 in 10.0 mi Calm Calm - N/A   Clear
9:55 PM 33.3 °F - 18.1 °F 54% 29.96 in 10.0 mi Calm Calm - N/A   Clear
10:15 PM 33.4 °F - 19.6 °F 57% 29.96 in 10.0 mi Calm Calm - N/A   Clear
10:35 PM 34.9 °F - 21.6 °F 58% 29.96 in 10.0 mi Calm Calm - N/A   Clear
10:55 PM 33.8 °F - 20.5 °F 58% 29.96 in 10.0 mi Calm Calm - N/A   Mostly Cloudy
11:15 PM 33.8 °F - 19.8 °F 56% 29.94 in 10.0 mi Calm Calm - N/A   Mostly Cloudy
11:35 PM 32.2 °F - 18.7 °F 58% 29.95 in 10.0 mi Calm Calm - N/A   Mostly Cloudy
11:55 PM 33.1 °F - 21.7 °F 63% 29.95 in 10.0 mi Calm Calm - N/A   Overcast